Regional Weather Roundup
Issued by NWS State College, PA

Home | Current Version | Previous Version | Text Only | Print | Product List | Glossary On
Versions: 1 2 3 4 5 6 7 8 9 10 11 12 13 14 15 16 17 18 19 20 21 22 23 24 25 26 27 28 29 30 31 32 33 34 35 36 37 38 39 40 41 42 43 44 45 46 47 48 49 50
351
ASUS41 KCTP 230910
RWRCTP

REGIONAL WEATHER ROUNDUP
NATIONAL WEATHER SERVICE STATE COLLEGE PA
400 AM EST THU FEB 23 2017

Note: "fair" indicates few or no clouds below 12,000 feet with no
significant weather and/or obstructions to visibility.

* = STATION THAT DOES NOT REPORT PRECIPITATION /E.G. RAIN...SNOW...ETC/
    THUNDER OR FOG.

PAZ002>004-007>009-013>016-020>023-029>032-231000-
WESTERN PENNSYLVANIA

CITY           SKY/WX    TMP DP  RH WIND       PRES   REMARKS
ERIE           CLOUDY    58  51  78 S17G25    29.72S
MEADVILLE      CLOUDY    53  49  86 S10G18    29.76F
FRANKLIN*      CLOUDY    54  48  82 S14       29.80S
NEW CASTLE     CLOUDY    54  52  93 VRB3      29.80S
BEAVER COUNTY  NOT AVBL
BUTLER*        CLOUDY    54  48  82 S7        29.81F
PITTSBURGH INT MOCLDY    55  52  89 S6        29.81S
PITTSBURGH     CLOUDY    54  49  83 S10       29.80F
INDIANA*       CLOUDY    54  52  94 SW10      29.84F
LATROBE        CLOUDY    55  54  94 S9        29.83F
WASHINGTON CO* CLOUDY    54  50  87 CALM      29.84S
$$

PAZ004>006-010>012-017>019-024>028-033>037-041-042-045-046-049>053-231000-
CENTRAL PENNSYLVANIA

CITY           SKY/WX    TMP DP  RH WIND       PRES   REMARKS
BRADFORD       CLOUDY    51  49  92 SW8       29.79F
DUBOIS         CLOUDY    53  47  79 SW6       29.80F
CLEARFIELD       N/A    N/A N/A N/A MISG      29.82F
JOHNSTOWN      CLOUDY    52  50  93 SW7       29.83S
ALTOONA        MOCLDY    50  45  83 S7        29.84S
STATE COLLEGE  MOCLDY    40  37  90 S3        29.83F
WILLIAMSPORT   CLEAR     37  34  89 CALM      29.84S
SELINSGROVE    CLEAR     34  33  96 CALM      29.85S
FT INDIANTOWN  CLEAR     37  37 100 CALM      29.85S
CAPITAL CITY   CLOUDY    46  41  82 NE3       29.86S
HARRISBURG     MOCLDY    44  42  93 NE3       29.85F
YORK           MOCLDY    42  42 100 CALM      29.85S
$$

PAZ038>040-043-044-047-048-054-055-060>062-067>071-231000-
EASTERN PENNSYLVANIA

CITY           SKY/WX    TMP DP  RH WIND       PRES   REMARKS
SCRANTON       CLEAR     43  39  86 E3        29.82F
MOUNT POCONO   CLEAR     39  38  96 W5        29.84F
ALLENTOWN      CLEAR     36  33  89 CALM      29.86F
QUAKERTOWN*    SUNNY     34  32  93 CALM      29.87F
READING        CLEAR     39  38  96 CALM      29.85F
LANCASTER      MOCLDY    39  39 100 E6        29.86F FOG
COATESVILLE    FOG       45  45 100 CALM      29.88S VSB<1/4
POTTSTOWN      CLEAR     37  36  96 CALM      29.88S FOG
BLUE BELL      MOCLDY    34  34 100 CALM      29.87S
DOYLESTOWN     CLEAR     41  39  93 CALM      29.86F FOG
WILLOW GROVE   NOT AVBL
NORTH PHILA    CLOUDY    44  43  96 CALM      29.90S FOG
PHILADELPHIA   FOG       48  48 100 S5        29.90S VSB 1/4
$$




USA.gov is the U.S. government's official web portal to all federal, state and local government web resources and services.